Weather History for KPGA - November, 2013

Change the Weather History Date:

Sunday, November 17, 2013

  Actual Average Record
Temperature  
Mean Temperature 53 °F -  
Max Temperature 62 °F 53 °F 73 °F (1999)
Min Temperature 44 °F 35 °F 18 °F (1964)
Degree Days  
Heating Degree Days 12    
Growing Degree Days 3 (Base 50)    
Moisture  
Dew Point 30 °F    
Average Humidity 43    
Maximum Humidity 58    
Minimum Humidity 22    
Precipitation  
Precipitation 0.00 in - - ()
Sea Level Pressure  
Sea Level Pressure 29.96 in    
Wind  
Wind Speed 4 mph (South)    
Max Wind Speed 7 mph    
Max Gust Speed -    
Visibility 10 miles    
Events      
Averages and records for this station are not official NWS values.
T = Trace of Precipitation, MM = Missing Value Source: NWS Daily Summary

Daily Weather History Graph

Daily Weather History Graph

Search for Another Location

Airport or City:

Trip Planner

Search our weather history database for the weather conditions in past years. The results will help you decide how hot, cold, wet, or windy it might be!

Date:

Astronomy

Nov. 17, 2013 Rise Set
Actual Time 7:06 AM MST 5:14 PM MST
Civil Twilight 6:38 AM MST 5:42 PM MST
Nautical Twilight 6:07 AM MST 6:13 PM MST
Astronomical Twilight 5:36 AM MST 6:44 PM MST
Moon 5:34 PM MST (11/17) 7:04 AM MST (11/17)
Length of Visible Light 11h 03m
Length of Day
10h 08m
Full, 100% of the Moon is Illuminated
Nov 17
Full
Nov 25
Last Quarter
Dec 2
New
Dec 9
First Quarter
Dec 17
Full

Hourly Weather History & Observations

Time (MST) Temp. Windchill Dew Point Humidity Pressure Visibility Wind Dir Wind Speed Gust Speed Precip Events Conditions
12:53 AM 46.9 °F - 28.0 °F 48% 29.77 in 10.0 mi Variable 5.8 mph - N/A   Clear
1:53 AM 45.0 °F 41.8 °F 28.9 °F 53% 29.79 in 10.0 mi SSW 5.8 mph - N/A   Clear
2:53 AM 46.9 °F - 28.9 °F 50% 29.81 in 10.0 mi SSW 3.5 mph - N/A   Scattered Clouds
3:53 AM 45.0 °F 43.5 °F 28.9 °F 53% 29.84 in 10.0 mi SSE 3.5 mph - N/A   Partly Cloudy
4:53 AM 48.9 °F - 30.0 °F 48% 29.85 in 10.0 mi WSW 6.9 mph - N/A   Partly Cloudy
5:53 AM 48.9 °F - 30.0 °F 48% 29.87 in 10.0 mi SW 6.9 mph - N/A   Scattered Clouds
6:53 AM 46.0 °F 44.8 °F 30.0 °F 54% 29.92 in 10.0 mi SW 3.5 mph - N/A   Clear
7:53 AM 46.9 °F - 30.9 °F 54% 29.95 in 10.0 mi SE 6.9 mph - N/A   Clear
8:53 AM 48.0 °F - 30.9 °F 52% 29.99 in 10.0 mi SE 5.8 mph - N/A   Clear
9:53 AM 55.0 °F - 30.9 °F 40% 30.00 in 10.0 mi Variable 3.5 mph - N/A   Clear
10:53 AM 55.9 °F - 30.9 °F 39% 30.02 in 10.0 mi Variable 4.6 mph - N/A   Clear
11:53 AM 57.9 °F - 30.9 °F 36% 30.00 in 10.0 mi Calm Calm - N/A   Clear
12:53 PM 60.1 °F - 30.0 °F 32% 29.97 in 10.0 mi Variable 3.5 mph - N/A   Clear
1:53 PM 62.1 °F - 30.9 °F 31% 29.96 in 10.0 mi Variable 4.6 mph - N/A   Clear
2:53 PM 62.1 °F - 30.9 °F 31% 29.95 in 10.0 mi Variable 4.6 mph - N/A   Clear
3:53 PM 62.1 °F - 30.9 °F 31% 29.97 in 10.0 mi Calm Calm - N/A   Clear
4:53 PM 60.1 °F - 30.9 °F 33% 29.98 in 10.0 mi Calm Calm - N/A   Clear
5:53 PM 54.0 °F - 30.9 °F 41% 30.01 in 10.0 mi Calm Calm - N/A   Clear
6:53 PM 54.0 °F - 30.9 °F 41% 30.04 in 10.0 mi Calm Calm - N/A   Clear
7:53 PM 51.1 °F - 30.9 °F 46% 30.06 in 10.0 mi Calm Calm - N/A   Clear
8:53 PM 50.0 °F - 30.9 °F 48% 30.07 in 10.0 mi ESE 3.5 mph - N/A   Clear
9:53 PM 48.0 °F - 30.9 °F 52% 30.06 in 10.0 mi Calm Calm - N/A   Clear
10:53 PM 45.0 °F - 30.0 °F 56% 30.08 in 8.0 mi Calm Calm - N/A   Clear
11:53 PM 44.1 °F - 30.0 °F 58% 30.09 in 8.0 mi Calm Calm - N/A   Clear